Tappahannock, VA

7:07 PM EST on February 20, 2018 (GMT -0500)
Tappahannock

Weather History for KXSA - November, 2013

Change the Weather History Date:

Monday, November 18, 2013

  Actual Average (KOFP) Record (KOFP)
Temperature  
Mean Temperature 58 °F -  
Max Temperature 71 °F 58 °F 79 °F (1953)
Min Temperature 46 °F 33 °F 13 °F (1959)
Degree Days  
Heating Degree Days 7    
Growing Degree Days 8 (Base 50)    
Moisture  
Dew Point 39 °F    
Average Humidity 50    
Maximum Humidity 92    
Minimum Humidity 16    
Precipitation  
Precipitation 0.00 in - - ()
Sea Level Pressure  
Sea Level Pressure 29.81 in    
Wind  
Wind Speed 7 mph (WSW)    
Max Wind Speed 16 mph    
Max Gust Speed 23 mph    
Visibility 10 miles    
Events Rain    
Averages and records for this station are not official NWS values.
T = Trace of Precipitation, MM = Missing Value Source: NWS Daily Summary

Daily Weather History Graph

Daily Weather History Graph

Search for Another Location

Airport or City:

Trip Planner

Search our weather history database for the weather conditions in past years. The results will help you decide how hot, cold, wet, or windy it might be!

Date:

Astronomy

Nov. 18, 2013 Rise Set
Actual Time 6:51 AM EST 4:53 PM EST
Civil Twilight 6:23 AM EST 5:22 PM EST
Nautical Twilight 5:51 AM EST 5:53 PM EST
Astronomical Twilight 5:19 AM EST 6:25 PM EST
Moon 5:54 PM EST (11/18) 7:38 AM EST (11/18)
Length of Visible Light 10h 58m
Length of Day
10h 02m
Full, 99% of the Moon is Illuminated
Nov 18
Full
Nov 25
Last Quarter
Dec 2
New
Dec 9
First Quarter
Dec 17
Full

Hourly Weather History & Observations

Time (EST) Temp. Dew Point Humidity Pressure Visibility Wind Dir Wind Speed Gust Speed Precip Events Conditions
12:15 AM 64.6 °F 61.9 °F 91% 29.81 in 10.0 mi South 6.9 mph - N/A   Light Drizzle
12:35 AM 65.3 °F 62.8 °F 92% 29.79 in 10.0 mi South 8.1 mph - N/A   Light Drizzle
12:55 AM 65.7 °F 63.3 °F 92% 29.79 in 10.0 mi South 10.4 mph 17.3 mph N/A   Overcast
1:15 AM 66.4 °F 63.7 °F 91% 29.78 in 10.0 mi South 11.5 mph 19.6 mph N/A   Overcast
1:35 AM 66.7 °F 63.9 °F 90% 29.76 in 10.0 mi South 10.4 mph - N/A   Overcast
1:55 AM 67.3 °F 64.0 °F 89% 29.76 in 10.0 mi South 9.2 mph - N/A   Overcast
2:15 AM 67.6 °F 64.4 °F 89% 29.75 in 10.0 mi South 10.4 mph 18.4 mph N/A   Overcast
2:35 AM 68.0 °F 64.4 °F 88% 29.75 in 10.0 mi SSW 6.9 mph - N/A   Overcast
2:55 AM 68.0 °F 64.8 °F 89% 29.75 in 7.0 mi SSW 8.1 mph - N/A   Light Drizzle
3:15 AM 67.6 °F 64.8 °F 90% 29.73 in 7.0 mi South 8.1 mph - N/A Rain Light Rain
3:35 AM 67.6 °F 64.8 °F 90% 29.74 in 5.0 mi South 5.8 mph - N/A Rain Light Rain
3:55 AM 67.6 °F 64.9 °F 91% 29.74 in 7.0 mi South 9.2 mph - N/A   Drizzle
4:15 AM 67.5 °F 65.1 °F 92% 29.74 in 5.0 mi SSW 8.1 mph - N/A   Drizzle
4:35 AM 61.5 °F 57.2 °F 86% 29.79 in 3.0 mi West 13.8 mph 21.9 mph N/A Rain Heavy Rain
4:55 AM 57.2 °F 52.5 °F 84% 29.78 in 7.0 mi WSW 4.6 mph - N/A Rain Rain
5:15 AM 56.7 °F 53.2 °F 88% 29.78 in 10.0 mi Calm Calm - N/A   Overcast
5:35 AM 56.5 °F 53.8 °F 91% 29.79 in 10.0 mi Calm Calm - N/A   Overcast
5:55 AM 56.3 °F 53.8 °F 91% 29.79 in 10.0 mi Calm Calm - N/A   Overcast
6:15 AM 56.3 °F 54.0 °F 92% 29.79 in 10.0 mi Calm Calm - N/A   Overcast
6:35 AM 57.7 °F 53.8 °F 87% 29.79 in 10.0 mi WSW 4.6 mph - N/A   Overcast
6:55 AM 58.6 °F 54.1 °F 85% 29.79 in 10.0 mi WSW 3.5 mph - N/A   Overcast
7:15 AM 59.7 °F 53.4 °F 80% 29.81 in 10.0 mi SW 5.8 mph - N/A   Overcast
7:35 AM 60.8 °F 52.9 °F 75% 29.81 in 10.0 mi SW 4.6 mph - N/A   Overcast
7:55 AM 61.0 °F 52.7 °F 74% 29.81 in 10.0 mi SW 3.5 mph - N/A   Overcast
8:15 AM 61.5 °F 54.0 °F 76% 29.82 in 10.0 mi SW 4.6 mph - N/A   Overcast
8:35 AM 62.1 °F 53.2 °F 73% 29.82 in 10.0 mi SW 3.5 mph - N/A   Mostly Cloudy
8:55 AM 63.7 °F 49.6 °F 60% 29.83 in 10.0 mi WSW 8.1 mph - N/A   Scattered Clouds
9:15 AM 65.1 °F 47.7 °F 53% 29.82 in 10.0 mi WSW 8.1 mph - N/A   Mostly Cloudy
9:35 AM 66.9 °F 43.7 °F 43% 29.83 in 10.0 mi WSW 9.2 mph - N/A   Mostly Cloudy
9:55 AM 68.0 °F 45.0 °F 43% 29.83 in 10.0 mi WSW 6.9 mph - N/A   Scattered Clouds
10:15 AM 68.9 °F 40.8 °F 36% 29.82 in 10.0 mi WSW 10.4 mph 17.3 mph N/A   Scattered Clouds
10:35 AM 68.7 °F 40.5 °F 36% 29.81 in 10.0 mi West 8.1 mph - N/A   Scattered Clouds
10:55 AM 69.3 °F 36.7 °F 30% 29.80 in 10.0 mi WSW 10.4 mph 17.3 mph N/A   Clear
11:15 AM 69.1 °F 34.3 °F 28% 29.80 in 10.0 mi WSW 10.4 mph 17.3 mph N/A   Clear
11:35 AM 70.3 °F 29.8 °F 22% 29.78 in 10.0 mi West 8.1 mph 16.1 mph N/A   Clear
11:55 AM 69.8 °F 27.5 °F 21% 29.78 in 10.0 mi SW 12.7 mph - N/A   Clear
12:15 PM 69.8 °F 25.9 °F 19% 29.78 in 10.0 mi WSW 12.7 mph 19.6 mph N/A   Clear
12:35 PM 70.0 °F 25.9 °F 19% 29.77 in 10.0 mi West 16.1 mph 23.0 mph N/A   Clear
12:55 PM 69.6 °F 24.6 °F 18% 29.77 in 10.0 mi West 13.8 mph 23.0 mph N/A   Clear
1:15 PM 70.5 °F 24.8 °F 18% 29.77 in 10.0 mi West 12.7 mph 17.3 mph N/A   Clear
1:35 PM 70.9 °F 27.1 °F 20% 29.76 in 10.0 mi West 9.2 mph - N/A   Clear
1:55 PM 70.2 °F 26.4 °F 19% 29.76 in 10.0 mi West 12.7 mph 20.7 mph N/A   Clear
2:15 PM 70.5 °F 26.6 °F 19% 29.76 in 10.0 mi WSW 13.8 mph - N/A   Clear
2:35 PM 70.2 °F 21.9 °F 16% 29.76 in 10.0 mi West 12.7 mph 21.9 mph N/A   Clear
2:55 PM 70.7 °F 23.4 °F 17% 29.76 in 10.0 mi West 11.5 mph 18.4 mph N/A   Clear
3:15 PM 70.0 °F 23.5 °F 17% 29.76 in 10.0 mi SW 5.8 mph 16.1 mph N/A   Clear
3:35 PM 69.8 °F 23.2 °F 17% 29.76 in 10.0 mi West 6.9 mph - N/A   Clear
3:55 PM 69.1 °F 24.1 °F 18% 29.77 in 10.0 mi West 6.9 mph - N/A   Clear
4:15 PM 68.0 °F 23.9 °F 19% 29.77 in 10.0 mi West 5.8 mph - N/A   Clear
4:35 PM 66.0 °F 25.0 °F 21% 29.78 in 10.0 mi WSW 3.5 mph - N/A   Clear
4:55 PM 64.0 °F 25.7 °F 23% 29.79 in 10.0 mi WSW 5.8 mph - N/A   Clear
5:15 PM 63.3 °F 21.7 °F 20% 29.80 in 10.0 mi WSW 4.6 mph - N/A   Clear
5:35 PM 61.5 °F 23.0 °F 23% 29.80 in 10.0 mi SW 4.6 mph - N/A   Clear
5:55 PM 60.8 °F 22.3 °F 23% 29.81 in 10.0 mi WSW 4.6 mph - N/A   Clear
6:15 PM 60.3 °F 20.7 °F 22% 29.82 in 10.0 mi SW 3.5 mph - N/A   Clear
6:35 PM 54.7 °F 28.0 °F 36% 29.82 in 10.0 mi Calm Calm - N/A   Clear
6:55 PM 49.8 °F 34.2 °F 55% 29.83 in 10.0 mi Calm Calm - N/A   Clear
7:15 PM 52.2 °F 28.2 °F 40% 29.84 in 10.0 mi WSW 4.6 mph - N/A   Clear
7:35 PM 52.2 °F 28.0 °F 39% 29.85 in 10.0 mi West 3.5 mph - N/A   Clear
7:55 PM 53.6 °F 25.3 °F 34% 29.85 in 10.0 mi West 3.5 mph - N/A   Clear
8:15 PM 54.9 °F 22.6 °F 29% 29.86 in 10.0 mi West 4.6 mph - N/A   Clear
8:35 PM 55.9 °F 20.7 °F 25% 29.87 in 10.0 mi Calm Calm - N/A   Clear
8:55 PM 55.6 °F 21.2 °F 26% 29.88 in 10.0 mi West 4.6 mph - N/A   Clear
9:15 PM 55.6 °F 20.5 °F 26% 29.89 in 10.0 mi WNW 3.5 mph - N/A   Clear
9:35 PM 54.1 °F 21.2 °F 28% 29.89 in 10.0 mi Calm Calm - N/A   Clear
9:55 PM 50.7 °F 23.4 °F 34% 29.89 in 10.0 mi West 3.5 mph - N/A   Clear
10:15 PM 50.7 °F 22.8 °F 34% 29.90 in 10.0 mi WSW 3.5 mph - N/A   Clear
10:35 PM 46.9 °F 25.3 °F 43% 29.91 in 10.0 mi West 4.6 mph - N/A   Clear
10:55 PM 50.9 °F 22.1 °F 32% 29.91 in 10.0 mi West 4.6 mph - N/A   Clear
11:15 PM 50.4 °F 22.3 °F 33% 29.91 in 10.0 mi West 4.6 mph - N/A   Clear
11:35 PM 50.7 °F 20.3 °F 30% 29.92 in 10.0 mi WNW 5.8 mph - N/A   Clear
11:55 PM 51.8 °F 18.7 °F 27% 29.92 in 10.0 mi NW 6.9 mph - N/A   Clear